Deelen, Netherlands

3:47 AM CEST on May 25, 2017 (GMT +0200)
Deelen Air Base

Weather History for EHDL - November, 2013

Change the Weather History Date:

Saturday, November 30, 2013

  Actual Average Record
Temperature  
Mean Temperature 42 °F -  
Max Temperature 48 °F 41 °F 53 °F (2000)
Min Temperature 35 °F 33 °F 17 °F (2016)
Degree Days  
Heating Degree Days 24    
Moisture  
Dew Point 39 °F    
Average Humidity 95    
Maximum Humidity 100    
Minimum Humidity 81    
Precipitation  
Precipitation 0.00 in - - ()
Sea Level Pressure  
Sea Level Pressure 30.11 in    
Wind  
Wind Speed 5 mph ()    
Max Wind Speed 9 mph    
Max Gust Speed -    
Visibility 5.4 miles    
Events Fog    
Averages and records for this station are not official NWS values.
T = Trace of Precipitation, MM = Missing Value Source: Averaged Metar Reports

Daily Weather History Graph

Daily Weather History Graph

Search for Another Location

Airport or City:

Trip Planner

Search our weather history database for the weather conditions in past years. The results will help you decide how hot, cold, wet, or windy it might be!

Date:

Astronomy

Nov. 30, 2013 Rise Set
Actual Time 8:21 AM CET 4:28 PM CET
Civil Twilight 7:41 AM CET 5:08 PM CET
Nautical Twilight 6:58 AM CET 5:51 PM CET
Astronomical Twilight 6:17 AM CET 6:32 PM CET
Moon 4:55 AM CET (11/30) 2:58 PM CET (11/30)
Length of Visible Light 9h 27m
Length of Day
8h 07m
Waning Crescent, 9% of the Moon is Illuminated
Nov 30
Waning Crescent
Dec 3
New
Dec 9
First Quarter
Dec 17
Full
Dec 25
Last Quarter

Hourly Weather History & Observations

Time (CET) Temp. Windchill Dew Point Humidity Pressure Visibility Wind Dir Wind Speed Gust Speed Precip Events Conditions
12:25 AM 35.6 °F 29.9 °F 35.6 °F 100% 29.89 in 6.2 mi WSW 6.9 mph - N/A   Unknown
12:55 AM 35.6 °F 29.2 °F 35.6 °F 100% 29.89 in 6.2 mi WSW 8.1 mph - N/A   Partly Cloudy
1:25 AM 37.4 °F 31.4 °F 37.4 °F 100% 29.89 in 6.2 mi WSW 8.1 mph - N/A   Overcast
1:55 AM 39.2 °F 34.2 °F 37.4 °F 93% 29.89 in 6.2 mi WSW 6.9 mph - N/A   Mostly Cloudy
2:25 AM 37.4 °F 32.1 °F 35.6 °F 93% 29.89 in 6.2 mi WSW 6.9 mph - N/A   Scattered Clouds
2:55 AM 39.2 °F 33.6 °F 37.4 °F 93% 29.89 in 6.2 mi WSW 8.1 mph - N/A   Mostly Cloudy
3:25 AM 39.2 °F 34.2 °F 37.4 °F 93% 29.89 in 6.2 mi West 6.9 mph - N/A   Overcast
3:55 AM 37.4 °F 32.8 °F 35.6 °F 93% 29.89 in 6.2 mi WSW 5.8 mph - N/A   Scattered Clouds
4:25 AM 39.2 °F 34.2 °F 37.4 °F 93% 29.92 in 6.2 mi WSW 6.9 mph - N/A   Mostly Cloudy
4:55 AM 37.4 °F 32.1 °F 37.4 °F 100% 29.92 in 6.2 mi WSW 6.9 mph - N/A   Mostly Cloudy
5:25 AM 37.4 °F 32.8 °F 37.4 °F 100% 29.95 in 6.2 mi WSW 5.8 mph - N/A   Overcast
5:55 AM 37.4 °F 34.9 °F 37.4 °F 100% 29.95 in 6.2 mi West 3.5 mph - N/A   Mostly Cloudy
6:25 AM 37.4 °F 34.9 °F 37.4 °F 100% 29.98 in 6.2 mi WNW 3.5 mph - N/A   Unknown
6:55 AM 37.4 °F 34.9 °F 37.4 °F 100% 29.98 in 6.2 mi WNW 3.5 mph - N/A   Overcast
7:25 AM 37.4 °F 34.9 °F 37.4 °F 100% 30.01 in 6.2 mi West 3.5 mph - N/A   Overcast
7:55 AM 39.2 °F 35.9 °F 37.4 °F 93% 30.01 in 6.2 mi WNW 4.6 mph - N/A   Mostly Cloudy
8:25 AM 39.2 °F 35.0 °F 37.4 °F 93% 30.04 in 6.2 mi NW 5.8 mph - N/A   Mostly Cloudy
8:55 AM 39.2 °F 35.9 °F 37.4 °F 93% 30.04 in 6.2 mi NW 4.6 mph - N/A   Mostly Cloudy
9:25 AM 39.2 °F 35.0 °F 39.2 °F 100% 30.06 in 3.7 mi WNW 5.8 mph - N/A   Drizzle
9:55 AM 41.0 °F 38.0 °F 41.0 °F 100% 30.06 in 6.2 mi NW 4.6 mph - N/A   Overcast
10:25 AM 41.0 °F 36.4 °F 41.0 °F 100% 30.09 in 6.2 mi NW 6.9 mph - N/A   Overcast
10:55 AM 42.8 °F 37.5 °F 42.8 °F 100% 30.12 in 6.2 mi NNW 9.2 mph - N/A   Overcast
11:25 AM 44.6 °F 40.2 °F 42.8 °F 93% 30.12 in 6.2 mi NNW 8.1 mph - N/A   Overcast
11:55 AM 44.6 °F 39.7 °F 42.8 °F 93% 30.12 in 3.1 mi NNW 9.2 mph - N/A   Mostly Cloudy
12:25 PM 44.6 °F 40.2 °F 42.8 °F 93% 30.12 in 6.2 mi NNW 8.1 mph - N/A   Mostly Cloudy
12:55 PM 46.4 °F 42.4 °F 42.8 °F 87% 30.15 in 6.2 mi NNW 8.1 mph - N/A   Overcast
1:25 PM 46.4 °F 43.5 °F 42.8 °F 87% 30.15 in 6.2 mi NNW 5.8 mph - N/A   Mostly Cloudy
1:55 PM 46.4 °F 42.9 °F 42.8 °F 87% 30.15 in 6.2 mi NNW 6.9 mph - N/A   Mostly Cloudy
2:25 PM 48.2 °F - 42.8 °F 82% 30.15 in 6.2 mi NNW 8.1 mph - N/A   Overcast
2:55 PM 46.4 °F 43.5 °F 42.8 °F 87% 30.18 in 6.2 mi NNW 5.8 mph - N/A   Overcast
3:25 PM 46.4 °F 41.9 °F 41.0 °F 81% 30.18 in 6.2 mi NNW 9.2 mph - N/A   Overcast
3:55 PM 46.4 °F 41.9 °F 41.0 °F 81% 30.21 in 6.2 mi NNW 9.2 mph - N/A   Overcast
4:25 PM 44.6 °F 41.4 °F 42.8 °F 93% 30.21 in 6.2 mi NW 5.8 mph - N/A   Mostly Cloudy
4:55 PM 44.6 °F 41.4 °F 42.8 °F 93% 30.24 in 6.2 mi WNW 5.8 mph - N/A   Overcast
5:25 PM 44.6 °F 42.2 °F 42.8 °F 93% 30.24 in 6.2 mi WNW 4.6 mph - N/A   Overcast
5:55 PM 42.8 °F 41.1 °F 41.0 °F 93% 30.24 in 6.2 mi West 3.5 mph - N/A   Unknown
6:25 PM 39.2 °F 37.0 °F 39.2 °F 100% 30.24 in 5.0 mi West 3.5 mph - N/A   Mist
6:55 PM 37.4 °F - 37.4 °F 100% 30.27 in 5.0 mi West 2.3 mph - N/A   Partly Cloudy
7:25 PM 35.6 °F - 35.6 °F 100% 30.27 in 0.7 mi WNW 1.2 mph - N/A   Overcast
7:55 PM 35.6 °F - 33.8 °F 93% 30.27 in 0.6 mi NW 2.3 mph - N/A Fog Fog
8:25 PM 39.2 °F 37.0 °F 39.2 °F 100% 30.30 in 3.1 mi WNW 3.5 mph - N/A   Overcast
8:55 PM 39.2 °F 35.9 °F 39.2 °F 100% 30.30 in 6.2 mi NW 4.6 mph - N/A   Mostly Cloudy
9:25 PM 39.2 °F - 39.2 °F 100% 30.30 in 5.0 mi South 1.2 mph - N/A   Mostly Cloudy
9:55 PM 39.2 °F - 39.2 °F 100% 30.33 in 4.3 mi West 2.3 mph - N/A   Mostly Cloudy
10:25 PM 39.2 °F - 39.2 °F 100% 30.33 in 4.3 mi SSW 1.2 mph - N/A   Mostly Cloudy
10:55 PM 39.2 °F - 39.2 °F 100% 30.33 in 3.1 mi Calm Calm - N/A   Overcast
11:25 PM 41.0 °F - 41.0 °F 100% 30.33 in 0.4 mi SSW 1.2 mph - N/A Fog Fog
11:55 PM 37.4 °F - 37.4 °F 100% 30.33 in - WNW 2.3 mph - N/A   Overcast